Terminal Aerodrome Forecast
Issued by NWS Wichita, KS

Home | Current Version | Previous Version | Text Only | Print | Product List | Glossary On
Versions: 1 2 3 4 5 6 7 8 9 10 11 12 13 14 15 16 17 18 19 20 21 22
000
FTUS43 KICT 060521
TAFICT
TAF
KICT 060521Z 0606/0706 20010KT P6SM SCT200
     FM061500 21010KT P6SM SKC=

USA.gov is the U.S. government's official web portal to all federal, state and local government web resources and services.